• Join FlightAware (Why Join?)
  • Login
  • US Flag 
02:22PM EST


 

Airport Tracker/Info


-or-


 

Live Flight TrackerFlight Track Log ✈ N153RB ✈ 29-Oct-2013 ✈ KMQY - KGPT

Flight Track Log - Related Links

Times and Time Zones

All times are in EDT time to prevent confusion due to time zone crossing. See the N153RB flight status page for this flight to view local times or setup timezone preferences in your user account.

Time Position Orientation Groundspeed Altitude Reporting Facility
EDT Latitude Longitude Course Direction KTS MPH feet Rate Location/Type
04:33PM 36.0333 -86.4333 90° East 270 311 5,700  Level Nashville TRACON
04:33PM 36.0178 -86.3819 111° Southeast 278 320 8,100 3,894 Climbing Memphis Center
04:34PM 35.9428 -86.3856 182° South 318 366 11,800 4,000 Climbing Memphis Center
04:35PM 35.8689 -86.4225 202° Southwest 298 343 16,100 3,100 Climbing Memphis Center
04:36PM 35.8031 -86.4564 203° Southwest 284 327 18,000 2,000 Climbing Memphis Center
04:37PM 35.7189 -86.4986 202° Southwest 310 357 20,100 2,100 Climbing Memphis Center
04:38PM 35.6286 -86.5461 203° Southwest 348 400 22,200 2,118 Climbing Memphis Center
04:39PM 35.5322 -86.5939 202° Southwest 365 420 24,300 4,358 Climbing Memphis Center
04:42PM 35.3117 -86.7086 203° Southwest 371 427 36,000 1,759 Climbing Atlanta Center
04:43PM 35.2103 -86.7614 203° Southwest 391 450 29,900 -3,061 Descending Atlanta Center
04:43PM 35.1419 -86.7969 203° Southwest 400 460 31,000 1,653 Climbing Memphis Center
04:44PM 35.0431 -86.8442 201° Southwest 401 461 32,600 1,700 Climbing Memphis Center
04:45PM 34.9383 -86.9019 204° Southwest 412 474 34,400 1,650 Climbing Memphis Center
04:46PM 34.8333 -86.9567 203° Southwest 412 474 35,900 528 Climbing Memphis Center
04:49PM 34.5453 -87.0994 202° Southwest 446 513 36,300 363 Climbing Memphis Center
04:50PM 34.4361 -87.1564 203° Southwest 446 513 37,200 958 Climbing Memphis Center
04:51PM 34.3247 -87.2133 203° Southwest 440 506 38,200 1,041 Climbing Memphis Center
04:52PM 34.2194 -87.2575 199° South 417 480 39,300 1,050 Climbing Memphis Center
04:53PM 34.1083 -87.3142 203° Southwest 423 487 40,300 908 Climbing Memphis Center
04:54PM 34.0133 -87.3603 202° Southwest 408 470 41,100 893 Climbing Memphis Center
04:55PM 33.9144 -87.4111 203° Southwest 401 461 42,100 992 Climbing Memphis Center
04:56PM 33.7783 -87.4783 202° Southwest 396 456 43,300 955 Climbing Memphis Center
04:57PM 33.6833 -87.5264 203° Southwest 396 456 44,200 850 Climbing Memphis Center
04:58PM 33.5800 -87.5744 201° Southwest 396 456 45,000 450 Climbing Memphis Center
04:59PM 33.4728 -87.6278 203° Southwest 401 461 45,100 50 Climbing Memphis Center
05:00PM 33.3633 -87.6833 203° Southwest 419 482 45,100 -50 Level Memphis Center
05:01PM 33.2517 -87.7364 202° Southwest 426 490 45,000 -50 Descending Memphis Center
05:02PM 33.1442 -87.7869 201° Southwest 431 496 45,000  Level Memphis Center
05:03PM 33.0367 -87.8419 203° Southwest 431 496 45,000  Level Memphis Center
05:05PM 32.8478 -87.9331 202° Southwest 389 448 45,000  Level Atlanta Center
05:06PM 32.7525 -87.9781 202° Southwest 398 458 45,000  Level Atlanta Center
05:07PM 32.6397 -88.0397 205° Southwest 404 465 45,000  Level Atlanta Center
05:08PM 32.5361 -88.0844 200° South 404 465 45,000  Level Atlanta Center
05:09PM 32.4342 -88.1339 202° Southwest 404 465 45,000 -150 Level Atlanta Center
05:10PM 32.3325 -88.1833 202° Southwest 404 465 44,700 -1,648 Descending Atlanta Center
05:12PM 32.1042 -88.2839 200° South 405 466 39,700 -2,289 Descending Houston Center
05:13PM 31.9958 -88.3389 203° Southwest 408 470 37,300 -2,112 Descending Memphis Center
05:14PM 31.9014 -88.3797 200° South 394 453 35,300 -2,048 Descending Houston Center
05:15PM 31.7997 -88.4261 201° Southwest 392 451 33,000 -2,468 Descending Houston Center
05:16PM 31.6783 -88.4833 202° Southwest 393 452 30,200 -2,323 Descending Houston Center
05:17PM 31.5783 -88.5319 202° Southwest 391 450 28,200 -1,113 Descending Houston Center
05:18PM 31.4858 -88.5750 202° Southwest 365 420 27,900 -726 Descending Houston Center
05:19PM 31.3975 -88.6158 202° Southwest 347 399 26,700 -1,597 Descending Houston Center
05:20PM 31.3075 -88.6583 202° Southwest 351 404 24,600 -2,565 Descending Houston Center
05:21PM 31.1956 -88.7097 201° Southwest 360 414 21,400 -3,194 Descending Houston Center
05:22PM 31.0986 -88.7539 201° Southwest 370 426 18,000 -2,952 Descending Houston Center
05:23PM 31.0042 -88.7967 201° Southwest 369 425 15,300 -2,784 Descending Houston Center
05:25PM 30.9172 -88.8361 201° Southwest 348 400 12,200 -2,832 Descending Houston Center
05:26PM 30.8381 -88.8725 202° Southwest 319 367 9,400 -2,661 Descending Houston Center
05:27PM 30.7511 -88.9125 202° Southwest 290 334 6,700 -2,274 Descending Houston Center
05:28PM 30.6869 -88.9419 202° Southwest 259 298 4,700 -1,790 Descending Houston Center
05:29PM 30.6372 -88.9808 214° Southwest 242 278 3,000 -1,258 Descending Houston Center
05:30PM 30.5736 -89.0186 207° Southwest 217 250 2,100 -677 Descending Houston Center
05:31PM 30.5275 -89.0472 208° Southwest 197 227 1,600 -290 Descending Houston Center
05:32PM 30.4833 -89.0722 206° Southwest 182 209 1,500 -290 Descending Houston Center
05:33PM 30.4419 -89.0919 202° Southwest 171 197 1,000 -484 Descending Houston Center
05:35PM 30.4073 -89.0701 199° South  Level Estimated
05:42PM 30.4073 -89.0701 199° South  Level Estimated